Regional Weather Roundup
Issued by NWS Bismarck, ND

Home | Current Version | Previous Version | Text Only | Print | Product List | Glossary On
Versions: 1 2 3 4 5 6 7 8 9 10 11 12 13 14 15 16 17 18 19 20 21 22 23 24 25 26 27 28 29 30 31 32 33 34 35 36 37 38 39 40 41 42 43 44 45 46 47 48 49 50
000
ASUS43 KBIS 241159
RWRBIS

NWR BROADCAST TEXT
NATIONAL WEATHER SERVICE BISMARCK ND
600 AM CST MON NOV 24 2014

NOTE: "FAIR" INDICATES FEW OR NO CLOUDS BELOW 12,000 FEET WITH NO
SIGNIFICANT WEATHER AND/OR OBSTRUCTIONS TO VISIBILITY.


CITY           SKY/WX    TMP DP  RH WIND       PRES   REMARKS
WILLISTON      PTCLDY     1  -3  83 CALM      29.87R
MINOT          CLEAR      5   0  79 NW13      29.82R WCI -12
MINOT AFB      NOT AVBL
BISMARCK       CLEAR     12   8  84 NW12      29.80R WCI  -2
DICKINSON      NOT AVBL
GARRISON         N/A      6   2  83 NW10      29.82R WCI  -9
HETTINGER ARPT PTCLDY    13  11  92 NW10      29.79R WCI   0
JAMESTOWN      MIX PCPN   9   3  78 NW24G32   29.67R WCI -12
CARRINGTON     FAIR       7   5  92 NW21G26   29.72R WCI -13
CROSBY         FAIR       5   3  92 NW9       29.87S WCI  -9
HARVEY         FAIR       5   1  85 NW16G23   29.76R WCI -14
HAZEN          PTSUNNY   10   5  79 NW8       29.84S WCI  -1
MANDAN         FAIR      10   9  92 NW14      29.78F WCI  -5
OAKES          LGT SNOW  14  10  85 NW25G32   29.63S WCI  -5
$$

CITY           SKY/WX    TMP DP  RH WIND       PRES   REMARKS
GRAND FORKS    CLOUDY     9   4  80 N24G35    29.66R WCI -12
GRAND FORKS AF NOT AVBL
DEVILS LAKE    CLOUDY     7  -6  56 N21G28    29.71R WCI -13
FARGO          LGT SNOW  13   7  77 N23       29.63R WCI  -6
CANDO          FAIR       7   1  78 MISG      29.75R
CAVALIER       CLOUDY     5   0  78 N24G33    29.71S WCI -17
GRAFTON        CLOUDY     7   1  78 N25G35    29.69R WCI -15
GWINNER        CLOUDY    16  10  79 N21       29.65R WCI  -2
ROLLA          FAIR       3   0  85 NW23G30   29.74R WCI -19
WALHALLA         N/A      3   0  85 NW21G26   29.74S WCI -18
$$

CITY           SKY/WX    TMP DP  RH WIND       PRES   REMARKS
ABERDEEN       FLURRIES  18  10  71 NW28G33   29.67R WCI  -1
MOBRIDGE       PTCLDY    18  13  80 NW16      29.72R WCI   3
BUFFALO          N/A     17  12  80 W5        29.71R WCI  10
RAPID CITY     CLEAR     24  17  74 N10       29.75R WCI  14
GLASGOW        FLURRIES  22  16  78 E8        29.84R WCI  12
SIDNEY         CLOUDY    12  10  92 CALM      29.87S
WOLF POINT     MOCLDY    13   8  81 E6        29.88R WCI   4
GLENDIVE       PTCLDY     9   3  78 CALM      29.83R
MILES CITY     LGT SNOW  26  24  92 SW3       29.80S FOG
BAKER          PTCLDY    14  11  87 NW5       29.79R WCI   6
$$

CITY           SKY/WX    TMP DP  RH WIND       PRES   REMARKS
BILLINGS       CLOUDY    37  24  59 NW18G28   29.91R
GREAT FALLS    PTCLDY    32  20  61 W14       29.96R
$$




USA.gov is the U.S. government's official web portal to all federal, state and local government web resources and services.